Location: Utrecht
(52.0917°N, 5.1178°E)
Time: 01:25:50
(UTC+02:00)

Tiangong 2 - Visible Passes

Search period start: 24 August 2017 00:00
Search period end: 03 September 2017 00:00
Orbit: 390 x 394 km, 42.8° (Epoch: 23 August)

Date Brightness Start Highest point End Pass type
(mag) Time Alt. Az. Time Alt. Az. Time Alt. Az.
24 Aug 3.6 04:42:14 11° SSE 04:42:14 11° SSE 04:43:02 10° SE visible
25 Aug 3.1 05:20:10 14° SSW 05:21:06 16° S 05:23:09 10° SE visible
26 Aug 3.7 04:25:45 11° SE 04:25:45 11° SE 04:26:05 10° SE visible
26 Aug 3.2 05:58:28 10° SW 06:00:25 15° S 06:02:21 10° SSE visible
27 Aug 3.1 05:03:47 16° S 05:03:47 16° S 05:05:37 10° SE visible
28 Aug 3.3 05:41:54 12° SSW 05:42:48 13° SSW 05:44:17 10° SSE visible
29 Aug 3.8 04:47:46 10° SSE 04:47:46 10° SSE 04:47:48 10° SSE visible
